[Date Prev][Date Next][Thread Prev][Thread Next] - [Date Index][Thread Index][Author Index]
KEPS
- Subject: [sarex] KEPS
- From: "ARTHUR Z. ROWE" <N1ORC@xxxxxxxxxxxx>
- Date: Sat, 06 Aug 2005 11:32:40 -0400
- User-Agent: Mozilla Thunderbird 1.0 (Windows/20041206)
ISS (ZARYA)
1 25544U 98067A 05218.33453167 -.00019115 00000-0 -14197-3 0 892
2 25544 51.6459 4.1322 0002795 210.6562 243.8363 15.71473167383576
STS 114
1 28775U 05026A 05218.45834983 .00354707 00000-0 25902-2 0 281
2 28775 51.6378 3.4962 0002230 308.7551 126.5298 15.71618834 1717
----
Via the sarex mailing list at AMSAT.ORG courtesy of AMSAT-NA.
To unsubscribe, send "unsubscribe sarex" to Majordomo@amsat.org
AMSAT Home